Location: Cuzcurrita-R�o Tir�n
(42.5415°N, 2.9642°W)
Time: 21:26:34
(UTC+00:00)

H-2A R/B - Pass Details

Date: 17 January 2021
Orbit: 734 x 836 km, 98.2° (Epoch: 02 March)

Event Time Altitude Azimuth Distance (km) Brightness Sun altitude
Rises 18:03:26 0° 135° (SE) 3,160 4.9 -10.5°
Reaches altitude 10° 18:05:57 10° 124° (SE) 2,250 4.1 -10.9°
Maximum altitude 18:10:08 28° 66° (ENE) 1,375 2.8 -11.6°
Drops below altitude 10° 18:14:24 10° 8° (N) 2,305 4.2 -12.4°
Sets 18:17:00 0° 358° (N) 3,252 5.1 -12.8°
